User: anonymous   Login
Location: Waning Moon II Observatory
(30.3730°N, 89.7620°W)
Time: 06:03:59
(UTC-05:00)
Language:

Cosmos 1825 Rocket - Orbit

View from above orbital plane
View from above orbital plane
View from above satellite
View from above satellite

Ground track
Ground track

The orbit data is extracted from the following two-line orbital elements,

1 17567U 87024B   17149.77603285 +.00000095 +00000-0 +85928-5 0  9998
2 17567 082.5306 216.2578 0020389 050.1864 310.1141 14.83653807633737
Epoch (UTC): 29 May 2017 18:37:29
Eccentricity: 0.0020389
inclination: 82.5306°
perigee height: 603 km
apogee height: 632 km
right ascension of ascending node: 216.2578°
argument of perigee: 50.1864°
revolutions per day: 14.83653807
mean anomaly at epoch: 310.1141°
orbit number at epoch: 63373

The dashed part of the orbit path shows where the satellite is in the earth's shadow,  

DLR